Overview Statistics Trail Chart Weather Telemetry Raw packets
 

This is the latest recevied weather packets stored in our database for station/object OE6ATD-13. If no packets are shown the sender has not sent any weather packets the latest 10 day(s).

<< 40 41 42 43 44 45 46 >>
Time Temp. Humidity Pressure Rain* Wind** Luminosity Snow
1788085817 29.44° C 36% 1017.2 hPa 0 mm - 854 W/m² -
1788085216 28.89° C 37% 1017.3 hPa 0 mm - 848 W/m² -
1788084627 28.89° C 38% 1017.3 hPa 0 mm - 842 W/m² -
1788084023 28.33° C 36% 1017.5 hPa 0 mm - 828 W/m² -
1788083416 28.33° C 35% 1017.5 hPa 0 mm - 820 W/m² -
1788082827 28.89° C 36% 1017.7 hPa 0 mm - 811 W/m² -
1788082223 27.78° C 38% 1017.6 hPa 0 mm - 785 W/m² -
1788081618 27.78° C 38% 1017.7 hPa 0 mm - 758 W/m² -
1788081029 27.78° C 40% 1017.7 hPa 0 mm - 736 W/m² -
1788080425 27.22° C 41% 1017.7 hPa 0 mm - 713 W/m² -
1788079820 26.67° C 44% 1017.9 hPa 0 mm - 689 W/m² -
1788079217 26.67° C 44% 1017.8 hPa 0 mm - 664 W/m² -
1788078628 27.22° C 44% 1017.9 hPa 0 mm - 644 W/m² -
1788078023 26.11° C 47% 1017.7 hPa 0 mm - 612 W/m² -
1788077421 25° C 49% 1017.7 hPa 0 mm - 572 W/m² -
1788076817 24.44° C 51% 1017.7 hPa 0 mm - 548 W/m² -
1788076229 24.44° C 52% 1017.8 hPa 0 mm - 520 W/m² -
1788075624 23.89° C 54% 1017.8 hPa 0 mm - 486 W/m² -
1788075020 23.89° C 53% 1017.6 hPa 0 mm - 456 W/m² -
1788074415 23.33° C 56% 1017.6 hPa 0 mm - 422 W/m² -
1788073831 22.78° C 57% 1017.5 hPa 0 mm - 389 W/m² -
1788073226 21.67° C 62% 1017.5 hPa 0 mm - 353 W/m² -
1788072622 21.11° C 65% 1017.4 hPa 0 mm - 318 W/m² -
1788072021 21.11° C 64% 1017.5 hPa 0 mm - 292 W/m² -
1788071417 21.11° C 66% 1017.5 hPa 0 mm - 253 W/m² -

* Rain latest hour (hover to see other rain measurements)
** Current wind speed in m/s (hover to see current wind gust speed)